User: anonymous   Login
Location: The Jewett Observatory
(46.7288°N, 117.1525°W)
Time: 14:59:11
(UTC-08:00)
Language:

Cosmos 1844 Rocket - Orbit

View from above orbital plane
View from above orbital plane
View from above satellite
View from above satellite

Ground track
Ground track

The orbit data is extracted from the following two-line orbital elements,

1 17974U 87041B   18051.57750035 -.00000009  00000-0  19327-4 0  9991
2 17974  71.0076 106.5109 0013583   4.7286  99.3883 14.17237388591874
Epoch (UTC): 20 February 2018 13:51:36
Eccentricity: 0.0013583
inclination: 71.0076°
perigee height: 825 km
apogee height: 844 km
right ascension of ascending node: 106.5109°
argument of perigee: 4.7286°
revolutions per day: 14.17237388
mean anomaly at epoch: 99.3883°
orbit number at epoch: 59187

The dashed part of the orbit path shows where the satellite is in the earth's shadow,  

DLR